Back to catalog

STARLINK-36651

AliveCommunicationsVLEO
NORAD 67840·PAYLOAD·🇺🇸 United States

Launched Feb 16, 2026 from Vandenberg Space Force Base

Loading…

Next Passes (next 24 hours)

TLE

FreshSource: CelesTrak SupGP

Epoch: Sep 14, 2026, 15:10 UTC

1 67840C 26033V   26257.63243056  .00008832  00000+0  31987-3 0  2578
2 67840  43.0022 280.0358 0001618 279.8549 310.7793 15.27575544    10

Track STARLINK-36651 in real time with AllMySat

Download on the App Store